User: anonymous   Login
Location: Observatorio Las Palmas
(29.0667°N, 110.9333°W)
Time: 17:12:43
(UTC-07:00)
Language:

NOAA 19 - Orbit

View from above orbital plane
View from above orbital plane
View from above satellite
View from above satellite

Ground track
Ground track

The orbit data is extracted from the following two-line orbital elements,

1 33591U 09005A   14328.52487538  .00000153  00000-0  10836-3 0  4754
2 33591 098.9645 273.2181 0014465 031.0616 077.2341 14.11813892298613
Epoch (UTC): 24 November 2014 12:35:49
Eccentricity: 0.0014465
inclination: 98.9645°
perigee height: 843 km
apogee height: 863 km
right ascension of ascending node: 273.2181°
argument of perigee: 31.0616°
revolutions per day: 14.11813892
mean anomaly at epoch: 77.2341°
orbit number at epoch: 29861

The dashed part of the orbit path shows where the satellite is in the earth's shadow,  

DLR